{"data":{"norad_id":43484,"epoch":"2026-09-20T05:21:47.697408Z","epoch_age_seconds":42203,"freshness":"FRESH","line1":"1 43484U 18048A   26263.22346872  .00000617  00000+0  96139-4 0  9992","line2":"2 43484  98.0875 326.0519 0009627 220.1968 139.8531 14.76445283447414","mean_motion":14.76445283,"eccentricity":0.0009627,"inclination_deg":98.0875,"raan_deg":326.0519,"arg_perigee_deg":220.1968,"mean_anomaly_deg":139.8531,"bstar":9.6139e-5,"rev_number":44741,"period_min":97.531552071747,"perigee_km":633.81024857779,"apogee_km":647.32406155796,"semimajor_km":7018.7041550679,"source":"CELESTRAK","updated_at":"2026-09-20T09:00:33.973295Z"}}